Wind_Speed
39 37 35 34 33 31 30 28 27 27 26 25 25 24 23 23 22 22 23 23 23 23 24 24 25 25 26 27 28 29 30 30 31 32 33 33 34 34 34 34 34 34 33
41 39 37 36 34 33 32 30 29 28 27 27 27 26 25 25 25 24 24 25 25 25 26 26 27 27 28 29 30 31 31 32 32 33 34 34 35 35 34 35 35 35 34
43 41 39 38 36 35 34 32 31 30 29 29 28 27 27 27 26 26 26 27 27 27 28 28 29 29 30 31 31 32 33 33 34 34 34 35 35 35 36 36 36 36 36
45 43 41 40 38 37 35 34 33 32 31 30 30 29 29 29 28 28 28 28 29 29 30 30 30 31 32 32 32 33 33 34 34 34 35 35 36 37 37 38 38 38 38
47 45 43 42 41 39 37 36 35 34 33 32 31 30 30 31 30 30 30 30 30 31 31 31 32 32 32 33 33 33 34 35 35 35 36 37 38 38 39 39 40 39 39
48 46 45 44 43 41 40 39 37 36 34 33 32 32 32 32 32 32 32 32 32 32 32 32 32 32 32 33 33 34 34 35 36 37 38 39 40 40 41 41 41 41 40
49 48 46 46 45 43 41 41 39 38 36 35 34 34 34 33 33 34 34 34 33 33 33 33 33 33 33 33 33 34 35 36 37 38 40 41 42 43 43 43 43 42 41
50 49 48 47 45 43 43 42 41 39 37 36 36 35 35 35 35 35 35 35 35 34 34 34 33 33 33 33 34 35 36 37 38 40 41 43 44 44 45 45 43 42 41
52 51 50 48 47 45 44 43 41 40 38 37 37 37 37 36 36 36 36 36 35 34 33 33 33 33 33 34 36 37 38 39 41 42 43 44 44 45 45 45 44 42 41
52 52 50 49 48 46 44 44 43 42 39 38 37 37 37 37 37 36 36 35 35 34 34 34 34 34 34 36 37 38 39 41 43 44 45 45 46 46 46 45 45 43 42
47 48 49 49 48 47 46 44 43 42 40 39 38 37 37 37 37 37 36 36 36 36 35 35 35 35 36 37 38 40 41 43 44 45 46 47 47 47 47 46 45 44 42
45 46 48 48 47 47 45 44 43 42 41 41 39 40 39 38 39 38 37 36 35 35 35 35 35 36 37 38 40 41 43 44 45 46 47 48 48 48 48 46 45 43 42
44 45 46 46 45 45 44 44 43 42 41 41 41 41 40 40 39 39 37 36 35 35 35 36 37 38 39 40 41 43 44 46 47 48 48 48 48 48 47 46 44 42 41
42 43 43 44 45 45 44 44 44 43 43 44 44 43 42 40 39 38 37 37 36 36 36 38 39 40 41 42 43 45 46 48 48 48 49 49 48 48 47 46 44 42 41
40 41 41 42 42 43 43 44 44 44 44 45 44 43 42 40 39 38 37 37 37 38 39 40 41 42 43 44 46 47 48 48 48 48 48 48 48 47 46 44 43 41 40
39 42 43 42 42 42 42 44 44 43 43 44 44 43 41 40 39 38 39 40 40 40 41 42 43 44 45 46 47 47 48 48 48 48 48 47 47 46 44 43 42 40 38
33 35 37 38 40 42 43 43 42 41 42 43 43 42 41 40 40 40 41 41 42 42 43 44 45 46 47 48 48 47 47 47 47 47 47 47 46 44 43 42 40 38 36
34 35 36 37 38 40 40 41 41 41 41 43 44 43 42 43 43 43 43 44 45 45 46 46 46 47 47 47 46 46 46 46 46 46 46 45 43 41 40 39 38 36 35
33 34 35 36 37 38 39 39 40 40 41 42 43 44 44 44 44 45 45 46 47 47 47 47 47 46 46 45 45 45 45 45 45 44 43 42 41 40 39 37 36 34 33
32 34 35 36 38 39 40 41 43 44 44 44 45 46 46 46 46 46 46 47 47 47 48 47 46 45 45 45 45 44 43 43 42 42 41 41 39 38 37 35 34 32 31
36 37 38 40 41 42 44 45 46 47 48 48 48 48 48 48 47 48 48 47 47 47 47 46 45 45 44 44 43 43 42 41 41 40 39 38 38 36 35 34 32 30 29
41 43 44 44 45 46 48 49 49 50 50 49 49 49 50 50 49 48 48 47 46 46 46 45 45 44 44 44 43 42 41 40 40 40 39 37 36 34 33 31 30 28 27
45 46 47 48 49 50 50 51 51 51 51 51 50 50 50 49 49 48 47 47 46 46 46 45 45 44 44 43 42 41 40 40 39 38 37 35 34 33 31 30 28 27 26
50 50 51 51 52 52 53 53 52 52 51 51 51 50 49 49 49 49 47 47 46 46 45 45 44 44 44 43 42 40 40 39 38 37 36 34 32 31 30 28 27 26 25
53 53 54 54 54 54 54 54 53 53 52 51 51 51 51 50 49 49 48 48 47 46 45 45 44 44 43 42 41 40 39 38 37 36 34 32 31 30 29 28 26 25 24
56 56 55 54 54 54 54 54 53 53 52 52 52 51 51 50 50 49 48 48 48 46 46 45 44 43 42 41 40 39 38 37 36 35 33 32 30 29 28 27 26 25 24
Wind_Direction
235 237 239 241 243 244 245 247 250 253 254 255 257 258 260 262 264 267 270 273 275 278 281 284 287 290 293 296 297 299 301 303 305 306 308 309 310 311 312 313 312 312 312
234 237 239 241 243 244 245 247 250 252 254 256 258 259 260 263 265 267 269 273 275 278 281 283 286 289 292 294 296 299 301 302 304 305 306 307 309 310 310 311 310 309 309
234 236 238 240 242 243 245 247 249 252 254 257 258 260 262 263 265 267 269 273 275 278 281 283 286 288 291 293 295 298 300 302 303 305 306 307 308 309 310 309 307 306 306
232 234 237 239 242 243 244 247 250 252 254 256 258 261 263 265 266 268 271 273 275 278 281 283 285 288 290 293 295 298 300 302 303 304 305 306 307 307 308 307 306 305 305
231 233 236 239 241 242 244 247 249 252 254 256 259 261 264 266 268 270 272 274 276 278 280 283 286 288 290 293 295 298 300 301 302 303 304 305 305 306 306 306 305 304 303
230 233 235 238 240 242 245 247 249 252 254 257 260 262 265 268 270 272 274 275 278 279 281 284 287 289 291 294 296 298 300 301 303 304 305 305 306 306 305 305 304 303 301
230 232 235 239 241 242 244 246 250 252 254 257 260 262 265 268 270 272 274 275 277 279 282 285 286 288 291 295 297 299 301 303 303 304 305 305 305 305 304 303 302 301 300
229 231 235 238 240 242 245 248 252 252 254 257 260 263 264 266 268 270 273 274 276 279 282 285 287 289 293 296 298 299 301 302 303 304 304 304 304 304 303 301 300 299 298
231 234 236 238 240 243 246 249 252 253 255 257 260 262 263 266 269 271 273 274 277 280 283 285 287 291 294 296 298 299 301 302 303 304 303 303 303 302 302 300 298 297 296
234 236 238 239 242 245 246 249 252 254 255 257 259 262 263 266 269 270 271 273 276 279 282 284 288 291 295 297 298 299 301 302 303 303 303 302 302 301 300 298 297 296 295
234 237 239 241 243 245 247 249 252 254 255 257 259 261 264 267 269 271 270 271 275 278 281 284 288 290 293 296 298 300 301 302 302 302 302 301 301 300 298 297 296 295 293
236 239 242 243 245 248 250 251 253 255 258 259 261 263 264 266 270 271 271 271 273 276 279 283 286 289 292 295 298 299 300 301 301 300 300 299 299 298 297 296 295 294 292
239 242 244 245 248 250 251 252 256 259 260 260 262 263 263 267 268 268 269 272 274 276 279 283 287 290 292 294 296 298 299 299 299 298 298 298 298 297 297 296 295 293 291
242 244 245 248 250 251 253 254 257 260 261 261 262 263 265 266 266 267 269 271 273 275 279 283 286 289 291 292 294 296 296 296 296 297 297 297 297 296 296 294 293 291 289
246 248 249 250 251 253 255 255 257 260 260 260 261 263 264 264 266 267 269 271 274 276 279 282 285 287 289 291 293 294 294 294 295 295 295 296 296 295 295 294 293 290 288
252 253 253 254 254 254 255 258 260 261 261 262 263 265 265 267 269 269 270 272 275 278 280 281 283 285 287 290 292 292 293 293 293 294 295 295 295 295 294 293 292 290 288
254 255 255 256 256 256 257 259 260 262 262 262 262 262 265 268 269 270 272 274 275 277 279 281 282 284 287 289 290 291 291 292 293 294 294 294 294 294 294 293 292 290 287
256 257 256 258 259 259 259 261 260 262 261 261 261 263 267 269 269 269 271 273 274 276 278 280 282 284 286 287 288 289 290 291 292 293 293 294 294 293 293 293 291 289 286
261 262 261 261 262 261 261 261 261 262 263 262 264 266 268 269 268 269 271 272 274 275 278 280 281 283 284 285 286 287 289 290 291 292 292 293 292 292 292 293 291 290 287
266 266 265 264 263 263 263 263 264 264 265 265 267 267 267 267 268 269 270 272 273 275 277 278 280 281 283 284 285 287 288 290 291 291 291 291 291 291 291 291 290 289 286
268 266 266 266 265 264 263 263 264 264 265 265 265 266 266 267 267 269 270 271 272 274 275 276 278 279 281 283 284 286 288 289 289 290 290 290 290 290 290 290 289 287 283
271 269 267 266 265 264 263 263 263 263 264 265 265 265 265 266 267 268 269 270 272 273 274 275 277 278 280 282 283 285 286 287 287 288 288 289 289 289 289 288 287 285 281
273 270 268 267 266 265 264 263 263 263 263 263 263 263 264 265 265 266 267 269 270 271 272 274 276 277 279 280 282 283 284 284 285 286 286 287 287 287 288 287 285 282 278
275 273 270 269 268 266 265 264 263 262 262 262 262 262 262 263 264 265 266 267 269 270 271 273 274 276 277 278 280 281 282 283 283 283 284 284 285 286 286 284 282 279 277
276 275 272 271 269 267 265 263 262 262 261 260 260 260 261 262 262 263 264 266 267 268 269 271 272 274 275 277 278 279 280 281 281 281 281 282 282 283 283 282 279 276 274
278 276 274 272 269 267 264 262 261 261 260 259 259 260 261 261 262 263 263 264 265 267 268 270 271 272 274 275 276 277 278 278 278 278 278 279 280 280 280 279 276 273 271
Height
5821 5824 5827 5830 5832 5834 5837 5838 5840 5841 5843 5844 5845 5846 5846 5847 5848 5848 5848 5848 5848 5847 5847 5846 5845 5844 5843 5842 5840 5839 5837 5835 5833 5830 5827 5825 5822 5819 5816 5813 5811 5807 5804
5814 5817 5821 5824 5826 5829 5831 5833 5834 5836 5838 5839 5840 5841 5842 5842 5843 5843 5843 5843 5843 5842 5842 5841 5840 5839 5838 5836 5835 5833 5831 5829 5827 5824 5822 5819 5816 5813 5810 5807 5805 5801 5798
5807 5811 5815 5818 5820 5823 5825 5827 5829 5831 5832 5833 5835 5836 5836 5837 5837 5838 5838 5838 5837 5837 5836 5835 5834 5833 5832 5830 5829 5827 5825 5823 5821 5818 5816 5813 5810 5807 5804 5801 5798 5795 5792
5800 5804 5808 5811 5814 5817 5819 5821 5823 5825 5826 5828 5829 5830 5831 5831 5832 5832 5832 5832 5832 5831 5831 5829 5828 5827 5826 5824 5823 5821 5819 5816 5814 5812 5809 5806 5804 5801 5797 5794 5791 5788 5785
5792 5796 5801 5804 5807 5810 5812 5815 5817 5819 5820 5822 5823 5824 5825 5825 5826 5826 5826 5826 5826 5825 5824 5823 5822 5821 5820 5818 5816 5814 5812 5810 5808 5805 5802 5800 5797 5793 5790 5787 5784 5781 5778
5784 5789 5793 5797 5800 5803 5805 5808 5810 5812 5814 5815 5816 5817 5818 5819 5819 5820 5819 5819 5819 5818 5818 5817 5816 5814 5813 5811 5810 5808 5805 5803 5801 5798 5795 5792 5789 5786 5783 5779 5776 5773 5770
5776 5781 5785 5789 5792 5795 5798 5801 5803 5805 5806 5808 5810 5811 5812 5812 5813 5813 5812 5812 5812 5811 5810 5809 5808 5807 5806 5804 5803 5800 5798 5796 5793 5790 5788 5785 5781 5778 5774 5771 5767 5764 5761
5768 5773 5777 5781 5784 5787 5790 5793 5795 5797 5799 5801 5802 5803 5804 5805 5805 5805 5805 5804 5804 5804 5803 5802 5801 5800 5799 5797 5795 5793 5791 5788 5785 5782 5779 5776 5773 5769 5765 5762 5758 5755 5753
5760 5765 5769 5773 5776 5779 5782 5785 5787 5789 5791 5793 5794 5795 5796 5797 5798 5798 5797 5797 5796 5796 5795 5794 5793 5792 5791 5789 5788 5785 5782 5780 5777 5774 5770 5767 5764 5760 5756 5753 5749 5746 5744
5752 5756 5761 5764 5768 5771 5774 5777 5779 5782 5783 5785 5786 5787 5788 5788 5789 5790 5790 5789 5789 5788 5788 5787 5785 5784 5783 5781 5779 5776 5774 5771 5768 5764 5761 5758 5754 5750 5747 5743 5740 5737 5734
5745 5749 5753 5757 5760 5763 5766 5769 5771 5773 5775 5776 5777 5778 5779 5780 5780 5781 5782 5781 5781 5780 5779 5778 5777 5776 5774 5772 5770 5768 5765 5762 5758 5755 5751 5748 5744 5740 5737 5733 5730 5727 5725
5738 5741 5745 5749 5752 5755 5758 5760 5763 5765 5767 5768 5769 5770 5770 5771 5772 5772 5772 5772 5772 5771 5770 5769 5768 5767 5765 5763 5761 5758 5755 5752 5749 5745 5741 5738 5734 5730 5726 5723 5720 5717 5715
5731 5734 5738 5741 5744 5746 5749 5752 5755 5756 5758 5759 5760 5760 5761 5762 5762 5762 5762 5762 5762 5762 5761 5760 5759 5757 5756 5754 5751 5748 5745 5742 5739 5735 5731 5727 5724 5720 5716 5713 5710 5707 5705
5724 5727 5730 5733 5736 5738 5741 5744 5745 5747 5748 5750 5750 5751 5751 5752 5752 5752 5753 5752 5753 5753 5752 5751 5749 5747 5745 5743 5741 5738 5735 5732 5728 5725 5721 5717 5713 5709 5706 5702 5699 5696 5694
5716 5719 5722 5725 5727 5730 5732 5734 5736 5737 5738 5739 5740 5740 5741 5741 5742 5742 5742 5742 5742 5742 5742 5741 5739 5737 5735 5732 5730 5727 5724 5721 5717 5714 5710 5706 5702 5699 5695 5692 5689 5686 5684
5709 5711 5714 5716 5718 5720 5722 5724 5725 5726 5727 5728 5729 5729 5730 5731 5731 5731 5731 5731 5731 5731 5731 5730 5728 5726 5723 5721 5718 5716 5713 5710 5706 5703 5699 5695 5692 5688 5685 5681 5679 5676 5674
5700 5702 5705 5707 5709 5711 5712 5713 5714 5715 5716 5717 5718 5718 5719 5719 5720 5720 5720 5720 5719 5719 5719 5718 5716 5714 5712 5709 5707 5704 5701 5698 5695 5692 5688 5684 5681 5677 5674 5671 5668 5666 5664
5692 5694 5695 5697 5698 5700 5701 5702 5703 5704 5705 5706 5706 5707 5708 5708 5708 5708 5708 5708 5707 5707 5706 5706 5704 5702 5700 5698 5695 5693 5690 5687 5684 5681 5677 5674 5670 5667 5664 5661 5659 5656 5655
5682 5684 5685 5686 5687 5688 5689 5690 5691 5691 5692 5693 5694 5695 5695 5695 5695 5696 5695 5695 5695 5694 5694 5693 5692 5690 5688 5686 5684 5681 5678 5676 5673 5669 5666 5663 5660 5657 5654 5652 5649 5647 5646
5672 5673 5674 5674 5676 5676 5677 5677 5678 5679 5680 5681 5681 5682 5682 5682 5682 5683 5682 5682 5682 5682 5681 5680 5679 5678 5676 5674 5672 5670 5668 5665 5662 5659 5656 5653 5650 5648 5645 5643 5640 5639 5637
5660 5661 5661 5662 5663 5663 5663 5664 5664 5665 5666 5667 5667 5668 5668 5669 5669 5669 5669 5669 5669 5669 5668 5667 5667 5666 5664 5662 5661 5659 5657 5654 5651 5648 5646 5643 5641 5639 5636 5634 5632 5630 5629
5648 5648 5648 5648 5648 5649 5649 5649 5650 5650 5651 5652 5653 5653 5654 5654 5654 5655 5655 5656 5656 5656 5656 5655 5654 5654 5652 5651 5649 5647 5645 5643 5641 5639 5636 5634 5632 5629 5627 5625 5624 5622 5622
5633 5633 5633 5633 5633 5633 5633 5633 5634 5635 5636 5636 5637 5638 5639 5639 5640 5641 5641 5641 5642 5642 5643 5643 5642 5641 5640 5639 5638 5636 5634 5632 5630 5628 5626 5624 5622 5620 5619 5617 5616 5615 5614
5617 5616 5616 5616 5616 5616 5616 5617 5617 5618 5620 5621 5622 5623 5624 5625 5626 5626 5627 5628 5628 5629 5629 5629 5629 5629 5628 5627 5626 5625 5623 5622 5620 5618 5616 5615 5613 5612 5610 5609 5608 5607 5607
5599 5598 5598 5597 5598 5598 5598 5599 5599 5601 5602 5604 5605 5607 5608 5609 5611 5612 5613 5614 5615 5615 5615 5616 5616 5616 5616 5615 5614 5613 5612 5611 5609 5608 5607 5606 5604 5603 5602 5601 5601 5600 5600
5581 5579 5579 5578 5579 5579 5580 5580 5581 5583 5585 5587 5589 5591 5592 5594 5595 5597 5598 5600 5601 5602 5602 5603 5603 5604 5603 5603 5602 5602 5601 5600 5599 5598 5597 5597 5596 5595 5594 5593 5593 5593 5593